FW9577 Weather Reports


time (UTC)temp
C
wind
direction
speed
KPH
gust
KPH
rain 1hr
cm
rain 24hr
cm
rain mn
cm
humidity
%
barometer
mb
20260505031546 25 117 1.6 4.8 0.00 0.00 0.00 95 206.0
20260505030044 26 0 0.0 3.2 0.00 0.00 0.00 95 206.0
20260505024540 26 47 3.2 4.8 0.00 0.00 0.00 95 206.0
20260505023047 26 58 1.6 3.2 0.00 0.00 0.00 95 206.0
20260505021539 26 0 0.0 1.6 0.00 0.00 0.00 94 206.0
20260505020039 26 0 0.0 1.6 0.00 0.00 0.00 94 206.0
20260505014546 25 350 1.6 3.2 0.00 0.00 0.00 94 206.0
20260505013041 26 349 1.6 4.8 0.00 0.00 0.00 94 206.0
20260505011602 26 348 3.2 4.8 0.00 0.00 0.00 93 206.0
20260505010043 26 0 1.6 4.8 0.00 0.00 0.00 92 206.0
20260505004547 26 340 0.0 1.6 0.00 0.00 0.00 92 206.0
20260505003034 26 0 0.0 0.0 0.00 0.00 0.00 91 206.0
20260505001543 26 0 0.0 1.6 0.00 0.00 0.00 91 206.0
20260505000058 26 340 1.6 4.8 0.00 0.00 0.00 90 206.0
20260504234540 27 334 3.2 4.8 0.00 0.00 0.00 88 206.0
20260504233054 27 144 1.6 3.2 0.00 0.00 0.00 82 206.0
20260504231536 27 0 0.0 4.8 0.00 0.00 0.00 81 206.0
20260504230044 28 129 3.2 4.8 0.00 0.00 0.00 81 206.0
20260504224544 28 158 1.6 3.2 0.00 0.00 0.00 79 206.0
20260504223043 30 155 3.2 6.4 0.00 0.00 0.00 77 206.0
20260504221539 30 148 4.8 8.0 0.00 0.00 0.00 76 206.0
20260504220036 30 214 4.8 9.7 0.00 0.00 0.00 74 206.0
20260504214534 31 158 4.8 8.0 0.00 0.00 0.00 72 206.0
20260504213045 32 157 4.8 8.0 0.00 0.00 0.00 70 206.0
20260504211541 32 218 3.2 8.0 0.00 0.00 0.00 71 206.0
20260504210040 31 162 4.8 9.7 0.00 0.00 0.00 72 206.0
20260504204535 31 153 4.8 11.3 0.00 0.00 0.00 74 206.0
20260504203036 30 234 4.8 12.9 0.00 0.00 0.00 75 206.0
20260504201544 30 187 9.7 14.5 0.00 0.00 0.00 75 206.0
20260504200042 30 217 8.0 14.5 0.00 0.00 0.00 74 206.0
20260504194540 30 150 8.0 14.5 0.00 0.00 0.00 75 206.0
20260504193036 30 160 8.0 14.5 0.00 0.00 0.00 74 206.0
20260504191559 30 193 8.0 14.5 0.00 0.00 0.00 74 206.0
20260504190048 30 186 8.0 14.5 0.00 0.00 0.00 75 206.0
20260504184546 31 212 9.7 16.1 0.00 0.00 0.00 74 206.0
20260504183041 31 195 8.0 16.1 0.00 0.00 0.00 74 206.0
20260504181539 30 212 9.7 16.1 0.00 0.00 0.00 73 206.0
20260504180035 30 194 8.0 17.7 0.00 0.00 0.00 74 206.0
20260504174546 30 214 11.3 19.3 0.00 0.00 0.00 75 206.0
20260504173041 30 200 12.9 20.9 0.00 0.00 0.00 78 206.0
20260504171548 30 195 16.1 22.5 0.00 0.00 0.00 77 206.0
20260504081541 26 137 20.9 27.4 0.00 0.00 0.00 87 206.0
20260504044543 26 108 22.5 29.0 0.00 0.00 0.00 92 206.0
20260504043050 26 112 22.5 27.4 0.00 0.00 0.00 91 206.0
20260504041542 26 115 19.3 25.7 0.00 0.00 0.00 92 206.0
20260504040042 26 93 19.3 25.7 0.00 0.00 0.00 92 206.0
20260504034536 27 115 22.5 27.4 0.00 0.00 0.00 92 206.0
20260504033037 27 89 20.9 25.7 0.00 0.00 0.00 91 206.0